Epoch 2018 Jan. 2.0 TT = JDT 2458120.5 T 2017 Dec. 19.11330 TT Rudenko q 4.3267559 (2000.0) P Q n 0.01413973 Peri. 262.15232 +0.40278800 -0.91041678 a 16.9372133 Node 163.11448 +0.91415750 +0.39501077 e 0.7445415 Incl. 18.95654 +0.04558398 +0.12291369 P 69.7 From 92 observations 2017 Oct. 24-2018 Feb. 15, mean residual 0".4.
m1 = 1.5 + 5 logΔ + 25.0 log r